Flag for Germany Weather past 2 weeks in Backnang, Baden-Württemberg, Germany

Now
65 °F

Passing clouds.


Feels Like: 65 °F
Forecast: 51 / 73 °F
Wind: 2 mph from Northeast

Location: Oehringen

Current Time: Aug 27, 2014 at 1:46:02 PM

Latest Report: Aug 27, 2014 at 1:00 PM


Visibility: 31 mi

Pressure: 30.01 "Hg

Humidity: 57%

Dew point: 50 °F

Location of BacknangLocation

Historic Weather in Backnang — Graph

°F

Backnang temperature yesterday

Maximum temperature yesterday: 69 °F (at 4:00 PM)
Minimum temperature yesterday: 54 °F (at 4:00 AM)
Average temperature yesterday: 60 °F

Past Weeks' High & Low Weather Summary

 TemperatureHumidityPressure
High73 °F (Aug 12, 5:00 PM)97% (Aug 26, 11:00 PM)30.16 "Hg (Aug 26, 11:00 PM)
Low48 °F (Aug 20, 7:00 AM)34% (Aug 22, 6:00 PM)29.66 "Hg (Aug 13, 7:00 PM)
Average59 °F74%29.95 "Hg
* Reported Aug 12 12:00 Noon — Aug 27 12:00 Noon, Backnang, Weather by CustomWeather, © 2014

Note: Actual official high and low records may vary slightly from our data, if they occured in-between our weather recording intervals... More about our weather records

Advertising

Backnang weather history for previous 24 hours

 ConditionsComfort  
Time TempWeatherWind HumidityBarometerVisibility
12:00 PM
Aug 27
62 °FOvercast.3 mph71%30.01 "Hg40 mi
11:00 AM60 °FOvercast.2 mph81%30.00 "Hg19 mi
10:00 AM58 °FOvercast.3 mph87%29.97 "Hg22 mi
9:00 AM57 °FLow clouds.1 mph90%29.95 "Hg22 mi
8:00 AM55 °FLight rain. Low clouds.2 mph95%29.92 "Hg12 mi
7:00 AM55 °FLow clouds.2 mph96%29.88 "Hg22 mi
6:00 AM56 °FDrizzle. Low clouds.3 mph94%29.85 "Hg34 mi
5:00 AM59 °FDrizzle. Low clouds.5 mph95%29.82 "Hg6 mi
4:00 AM59 °FLight rain. Low clouds.6 mph96%29.80 "Hg3 mi
3:00 AM59 °FRain. Low clouds.5 mph97%29.80 "Hg2 mi
2:00 AM59 °FLow clouds.5 mph95%29.79 "Hg13 mi
1:00 AM59 °FLow clouds.5 mph96%29.78 "Hg7 mi
12:00 AM59 °FLight freezing rain. Low clouds.3 mph96%29.78 "Hg2 mi
11:00 PM
Aug 26
60 °FRain. Low clouds.1 mph97%29.75 "Hg1 mi
10:00 PM60 °FLight rain. Low clouds.1 mph96%29.74 "Hg11 mi
9:00 PM60 °FLight rain. Overcast.1 mph96%29.73 "Hg8 mi
8:00 PM61 °FLight rain. Overcast.2 mph95%29.72 "Hg4 mi
7:00 PM62 °FOvercast.2 mph88%29.72 "Hg34 mi
6:00 PM63 °FLight rain. Overcast.2 mph88%29.71 "Hg16 mi
5:00 PM68 °FOvercast.5 mph63%29.70 "Hg43 mi
4:00 PM69 °FOvercast.5 mph61%29.71 "Hg43 mi
3:00 PM67 °FOvercast.6 mph67%29.73 "Hg43 mi
2:00 PM65 °FOvercast.7 mph68%29.73 "Hg43 mi
1:00 PM65 °FPartly sunny.7 mph71%29.72 "Hg40 mi
Weather by CustomWeather, © 2014

See weather overviewHow to use our weather pages